Location: Huntsville
(41.2590°N, 111.7678°W)
Time: 06:51:14
(UTC+00:00)

Vanguard 3 - Pass Details

Date: 20 June 2021
Orbit: 508 x 3261 km, 33.4° (Epoch: 29 July)

Event Time Altitude Azimuth Distance (km) Brightness Sun altitude
Rises 14:10:54 0° 226° (SW) 2,651 9.3 22.9°
Reaches altitude 10° 14:13:39 10° 204° (SSW) 1,709 8.6 23.4°
Maximum altitude 14:16:08 17° 161° (SSE) 1,351 8.5 23.8°
Drops below altitude 10° 14:18:47 10° 118° (ESE) 1,851 9.9 24.3°
Sets 14:21:56 0° 98° (E) 2,987 11.2 24.9°
